Content
SEND FEEDBACK

Daily
Averages
Monthly
Summary
Mexico

PUERTO MORELOS, QUINTANA ROO


Home > North America > Mexico > Quintana Roo
Elevation: 20 feet     Latitude: 20 51N     Longitude: 086 52W

WEATHER
 
SELECT A DAY
Number of Records: 163,746;   Date Range: 1/1/95 - 7/30/14
 
SHARE

PRINT THIS DATA

[ ← Previous Day ]
WEATHER ALMANAC - OCTOBER 18, 2013
[ Next Day → ]
[ °C ]   °F
Weather ElementAverageHighLow
Temperature76.9 °F86 °F (10:40 am)68 °F (4:44 am)
Dewpoint70 °F73.4 °F (8:41 am)66.2 °F (6:45 am)
Humidity80.6 %100 % (1:48 am)62 % (10:40 am)
Barometer29.91 in29.96 in (9:49 am)29.85 in (3:40 pm)
Wind Speed3.7 mph12.7 mph (3:40 pm)
Weather ElementAverage
Visibility7 mi
Wind DirectionENE (82.6 °)

Weather ElementTotal
Precipitation---
Cooling Degree Days12 (Base 65)
Growing Degree Days27 (Base 50)
Averaged from 23 records on October 18, 2013
WEATHER CONDITIONS BREAKOUT
WIND DIRECTION BREAKOUT
WEATHER BY HOUR - OCTOBER 18, 2013
[ °C ]   °F
Local TimeTemperatureDewpointHumidityBarometerVisibilityWind DirectionWind SpeedGust SpeedPrecipitationEventsConditions
1:48 AM69.8 °F69.8 °F100 %29.91 in7.0 miWNW (300°)4.6 mphClear
2:42 AM69.8 °F69.8 °F100 %29.91 in7.0 miCalmClear
3:40 AM69.8 °F68.0 °F94 %29.89 in7.0 miCalmClear
4:44 AM68.0 °F68.0 °F100 %29.89 in7.0 miCalmClear
5:43 AM68.0 °F68.0 °F100 %29.89 in7.0 miNW (320°)3.5 mphClear
6:45 AM68.0 °F66.2 °F94 %29.91 in7.0 miNW (320°)2.3 mphScattered Clouds
7:42 AM69.8 °F68.0 °F94 %29.93 in7.0 miCalmScattered Clouds
8:41 AM78.8 °F73.4 °F83 %29.94 in7.0 miWNW (300°)3.5 mphScattered Clouds
9:49 AM82.4 °F73.4 °F74 %29.96 in7.0 miNNE (20°)2.3 mphScattered Clouds
10:40 AM86.0 °F71.6 °F62 %29.96 in7.0 miNNE (30°)4.6 mphMostly Cloudy
11:42 AM84.2 °F71.6 °F66 %29.95 in7.0 miNE (50°)6.9 mphMostly Cloudy
12:43 PM84.2 °F69.8 °F62 %29.93 in7.0 miESE (110°)10.4 mphScattered Clouds
1:41 PM86.0 °F71.6 °F62 %29.90 in7.0 miEast (90°)10.4 mphScattered Clouds
2:49 PM86.0 °F71.6 °F62 %29.89 in7.0 miENE (60°)3.5 mphPartly Cloudy
3:40 PM84.2 °F69.8 °F62 %29.85 in7.0 miNE (40°)12.7 mphClear
4:41 PM84.2 °F69.8 °F62 %29.87 in7.0 miENE (60°)8.1 mphClear
5:47 PM82.4 °F69.8 °F66 %29.88 in7.0 miENE (70°)4.6 mphClear
6:41 PM78.8 °F69.8 °F74 %29.88 in7.0 miENE (60°)3.5 mphClear
7:40 PM75.2 °F69.8 °F83 %29.91 in7.0 miENE (70°)3.5 mphClear
8:49 PM75.2 °F69.8 °F83 %29.92 in7.0 miCalmClear
9:48 PM73.4 °F69.8 °F88 %29.89 in7.0 miCalmClear
10:47 PM73.4 °F69.8 °F88 %29.93 in7.0 miCalmClear
11:46 PM71.6 °F69.8 °F94 %29.92 in7.0 miCalmClear
Hourly data recorded from MMUN, located miles away from Puerto Morelos, Quintana Roo







STORIES FROM OUR PARTNERS